Weather History for Tel Aviv, Israel

Change the Weather History Date:

Tuesday, February 26, 2013

  Actual Average Record
Temperature  
Mean Temperature 68 °F -  
Max Temperature 82 °F 66 °F 82 °F (2013)
Min Temperature 55 °F 51 °F 41 °F (1997)
Cooling Degree Days 4    
Growing Degree Days 18 (Base 50)    
Moisture  
Dew Point 43 °F    
Average Humidity 44    
Maximum Humidity 72    
Minimum Humidity 12    
Precipitation  
Precipitation 0.00 in - - ()
Sea Level Pressure  
Sea Level Pressure 30.02 in    
Wind  
Wind Speed 3 mph ()    
Max Wind Speed 8 mph    
Max Gust Speed -    
Visibility 6.2 miles    
Events      
Averages and records for this station are not official NWS values.
T = Trace of Precipitation, MM = Missing Value Source: Averaged Metar Reports

Daily Weather History Graph

Daily Weather History Graph

Search for Another Location

Airport:

Trip Planner

Search our weather history database for the weather conditions in past years. The results will help you decide how hot, cold, wet, or windy it might be!

Date:

Astronomy

Feb. 26, 2013 Rise Set
Actual Time 6:11 AM IST 5:35 PM IST
Civil Twilight 5:46 AM IST 6:00 PM IST
Nautical Twilight 5:18 AM IST 6:28 PM IST
Astronomical Twilight 4:49 AM IST 6:57 PM IST
Moon 6:23 PM IST (2/26) 6:07 AM IST (2/26)
Length of Visible Light 12h 13m
Length of Day
11h 24m
Full, 100% of the Moon is Illuminated
Feb 26
Full
Mar 4
Last Quarter
Mar 11
New
Mar 19
First Quarter
Mar 27
Full

Hourly Weather History & Observations

Time (IST) Temp. Dew Point Humidity Pressure Visibility Wind Dir Wind Speed Gust Speed Precip Events Conditions
12:20 AM 59.0 °F 48.2 °F 67% 30.06 in 6.2 mi Variable 2.3 mph - N/A   Overcast
12:50 AM 57.2 °F 48.2 °F 72% 30.06 in 6.2 mi Variable 1.2 mph - N/A   Mostly Cloudy
1:20 AM 59.0 °F 46.4 °F 63% 30.04 in 6.2 mi Variable 3.5 mph - N/A   Overcast
1:50 AM 59.0 °F 46.4 °F 63% 30.04 in 6.2 mi Variable 3.5 mph - N/A   Overcast
2:00 AM 59 °F 47 °F 53% 30.04 in 6 mi 3.5 mph - -   Overcast
2:20 AM 59.0 °F 46.4 °F 63% 30.04 in 6.2 mi Variable 1.2 mph - N/A   Scattered Clouds
2:50 AM 59.0 °F 46.4 °F 63% 30.04 in 6.2 mi Variable 2.3 mph - N/A   Scattered Clouds
3:20 AM 59.0 °F 44.6 °F 59% 30.04 in 6.2 mi East 5.8 mph - N/A   Scattered Clouds
3:50 AM 59.0 °F 44.6 °F 59% 30.04 in 6.2 mi Variable 2.3 mph - N/A   Scattered Clouds
4:20 AM 57.2 °F 44.6 °F 63% 30.04 in 6.2 mi Variable 3.5 mph - N/A   Mostly Cloudy
4:50 AM 55.4 °F 44.6 °F 67% 30.04 in 6.2 mi Variable 1.2 mph - N/A   Mostly Cloudy
5:20 AM 55.4 °F 44.6 °F 67% 30.04 in 6.2 mi Variable 2.3 mph - N/A   Scattered Clouds
5:50 AM 55.4 °F 44.6 °F 67% 30.04 in 6.2 mi Variable 2.3 mph - N/A   Partly Cloudy
6:20 AM 59.0 °F 41.0 °F 51% 30.04 in 6.2 mi ESE 5.8 mph - N/A   Partly Cloudy
6:50 AM 57.2 °F 42.8 °F 59% 30.04 in - Variable 1.2 mph - N/A   Clear
7:20 AM 59.0 °F 44.6 °F 59% 30.06 in - Variable 1.2 mph - N/A   Clear
7:50 AM 62.6 °F 42.8 °F 48% 30.06 in - Variable 1.2 mph - N/A   Clear
8:00 AM 62 °F 45 °F 43% 30.07 in 6 mi 1.2 mph - -  
8:20 AM 66.2 °F 39.2 °F 37% 30.06 in - Variable 1.2 mph - N/A   Clear
8:50 AM 69.8 °F 41.0 °F 35% 30.06 in - Variable 1.2 mph - N/A   Clear
9:20 AM 71.6 °F 42.8 °F 35% 30.06 in - Variable 3.5 mph - N/A   Clear
9:50 AM 73.4 °F 44.6 °F 36% 30.06 in - Variable 3.5 mph - N/A   Clear
10:20 AM 77.0 °F 41.0 °F 28% 30.06 in - Variable 3.5 mph - N/A   Clear
10:50 AM 77.0 °F 48.2 °F 36% 30.06 in - WNW 5.8 mph - N/A   Clear
11:20 AM 75.2 °F 39.2 °F 27% 30.04 in - WNW 6.9 mph - N/A   Clear
11:50 AM 78.8 °F 37.4 °F 23% 30.04 in - WNW 6.9 mph - N/A   Clear
12:20 PM 78.8 °F 41.0 °F 26% 30.04 in - WNW 8.1 mph - N/A   Clear
12:50 PM 78.8 °F 37.4 °F 23% 30.01 in - WNW 8.1 mph - N/A   Clear
1:20 PM 80.6 °F 35.6 °F 20% 30.01 in - WNW 6.9 mph - N/A   Clear
1:50 PM 80.6 °F 37.4 °F 21% 30.01 in - WNW 5.8 mph - N/A   Clear
2:00 PM 81 °F 37 °F 12% 30.01 in 6 mi West 5.8 mph - -  
2:20 PM 82.4 °F 37.4 °F 20% 30.01 in - WNW 4.6 mph - N/A   Clear
2:50 PM 82.4 °F 35.6 °F 19% 29.98 in - WNW 5.8 mph - N/A   Clear
3:20 PM 80.6 °F 37.4 °F 21% 29.98 in - WNW 6.9 mph - N/A   Clear
3:50 PM 80.6 °F 37.4 °F 21% 29.98 in - WNW 8.1 mph - N/A   Clear
4:20 PM 80.6 °F 37.4 °F 21% 29.98 in - NNW 6.9 mph - N/A   Clear
4:50 PM 77.0 °F 39.2 °F 26% 29.98 in - WNW 6.9 mph - N/A   Clear
5:20 PM 75.2 °F 42.8 °F 31% 29.98 in - WNW 8.1 mph - N/A   Clear
5:50 PM 73.4 °F 39.2 °F 29% 29.98 in - WNW 6.9 mph - N/A   Clear
6:20 PM 71.6 °F 39.2 °F 31% 29.98 in - Variable 2.3 mph - N/A   Clear
6:50 PM 68.0 °F 42.8 °F 40% 29.98 in - Variable 3.5 mph - N/A   Clear
7:20 PM 68.0 °F 44.6 °F 43% 30.01 in - Variable 1.2 mph - N/A   Clear
7:50 PM 68.0 °F 46.4 °F 46% 30.01 in 6.2 mi Variable 1.2 mph - N/A   Partly Cloudy
8:00 PM 70 °F 44 °F 28% 30.01 in 6 mi East 2.3 mph - -  
8:20 PM 64.4 °F 46.4 °F 52% 30.01 in 6.2 mi Variable 3.5 mph - N/A   Partly Cloudy
8:50 PM 64.4 °F 46.4 °F 52% 30.01 in 6.2 mi Variable 2.3 mph - N/A   Partly Cloudy
9:20 PM 64.4 °F 46.4 °F 52% 30.01 in 6.2 mi Variable 2.3 mph - N/A   Mostly Cloudy
9:50 PM 64.4 °F 48.2 °F 56% 30.01 in 6.2 mi Variable 3.5 mph - N/A   Mostly Cloudy
10:20 PM 64.4 °F 48.2 °F 56% 30.01 in 6.2 mi Variable 2.3 mph - N/A   Scattered Clouds
10:50 PM 60.8 °F 50.0 °F 68% 29.98 in 6.2 mi Variable 1.2 mph - N/A   Scattered Clouds
11:20 PM 62.6 °F 48.2 °F 59% 29.98 in 6.2 mi Variable 1.2 mph - N/A   Scattered Clouds
11:50 PM 62.6 °F 48.2 °F 59% 29.98 in 6.2 mi Variable 1.2 mph - N/A   Scattered Clouds